EXPRESS-AT1

Last updated on Mon Sep 15 2025 00:02:48 GMT+0000 (Coordinated Universal Time)

1 39612U 14010A 25257.21503095 .00000068 00000+0 00000+0 0 9995 2 39612 0.0168 201.0783 0001425 315.7255 330.0605 1.00261061 42054
UTC large
Height (km)
Speed (km/s)
/
Latitude / Longitude
Inclination (degrees)
Orbital Period (minutes)
Azimuth
Elevation
Range (km)
Doppler Factor

Next 0 passes for location: London (51.5072 / 0.1276)

Sorry there are no passes over London.